Погода в Княгинино

Россия / Нижегородская область     55°49′14″N   45°01′56″E
В апреле 2022 года жителям России запретили посещать сайт meteo.paraplan.net по решению Генеральной прокуратуры. Аудитория сайта уменьшилась в 10 раз. Владельцы сайта не видят смысла в поддержке погодного сервера в таких условиях. Сайт будет закрыт в октябре.
темп.,
°C
ветер,
м/с
пор.,
м/с
влажн.,
%
обл.,
%
осадки,
мм/ч
давл.,
гПа
погр.,
м
4 октября, вт
вт400:00+11ююв4987100 0.1 1015323
03:00+10ююв410956 0.1 1016332
06:00+10ююв5109270 0.0 1017453
09:00+13ююв6108259 0.0 1018739
12:00+15ююв786898 0.0 10181121
15:00+14ююв6871100 0.1 10181011
18:00+11ююв7138062 0.0 1019502
21:00+11юв61468100 0.0 1018487
5 октября, ср
ср500:00+11ююв71483100 0.1 1017649
03:00+11ююв71283100 0.3 1017704
06:00+10ююв71389100 1.0 1016592
09:00+11ю71188100 1.3 1016837
12:00+12ююз6976100 0.8 1016931
15:00+13ююз6967100 2.0 10151221
18:00+11ююз4107597 0.3 1015413
21:00+9юз3787100 0.9 1015608
6 октября, чт
чт600:00+8зюз5887100 0.8 1014678
03:00+7зюз368699 0.9 1014671
06:00+6зюз5688100 1.3 1014757
09:00+5зюз5790100 1.8 1014785
12:00+7зсз478599 0.3 1015803
15:00+6з5890100 0.4 1016761
18:00+7з51088100 0.1 1018539
21:00+5з498912 0.1 1018229
7 октября, пт
пт700:00+4зюз37865 0.0 1018118
03:00+3ююз399123 0.0 1017171
06:00+5ююз51286100 0.0 1015331
09:00+8зюз61292100 0.0 1014655
12:00+10з6119098 0.3 1016623
15:00+11зсз71281100 0.4 10171196
18:00+10зсз71267100 0.0 1019728
21:00+10з614725 0.0 1020661
8 октября, сб
сб800:00+7з613900 0.0 1022405
03:00+6з511950 0.0 1023306
06:00+5зюз49979 0.0 1024199
09:00+9з58844 0.0 1025350
12:00+12зюз57660 0.0 1024799
15:00+13зюз57615 0.0 1023961
18:00+9юз39785 0.0 1023157
21:00+7юз4118646 0.0 1023221